EHI
5 2 1 2 2 2 2 2 3 3 3 3 2 1 0 0 0 0 0 1 2 2 3 3 3 3 3 4 6 6 5 3 1 0 0 0 0 0 0 0 0 0 0
6 3 1 1 1 1 1 1 2 2 3 3 3 2 1 1 0 0 0 1 2 3 3 3 3 3 4 4 5 6 6 4 2 0 0 0 0 0 0 0 0 0 0
6 4 2 1 0 0 0 1 1 1 1 2 2 2 2 2 1 1 1 0 1 2 3 4 3 4 4 4 4 4 5 5 3 1 0 0 0 0 0 0 0 0 0
5 4 3 2 1 1 1 1 0 0 0 1 1 1 2 2 2 2 2 1 1 1 2 4 4 4 5 4 4 5 5 6 5 3 2 1 1 0 0 0 0 0 0
4 3 3 3 3 2 1 1 0 0 0 0 0 0 1 1 2 3 3 2 1 1 1 2 3 4 5 6 7 7 7 7 7 6 5 4 3 1 0 0 0 0 0
3 3 3 3 3 3 2 1 0 0 0 0 0 0 0 0 1 2 2 2 1 0 0 0 1 3 5 8 9 9 9 9 8 8 6 5 4 2 0 0 0 0 0
3 3 3 3 3 3 3 2 1 0 0 0 0 0 0 0 0 1 1 1 0 0 0 0 0 2 4 6 8 8 8 8 8 8 6 4 2 1 0 0 0 0 0
4 4 4 4 3 3 3 3 2 1 0 0 0 0 0 0 0 0 0 0 0 0 0 0 0 2 3 4 4 4 5 6 6 6 5 4 3 2 1 0 0 0 0
6 6 6 5 4 3 3 3 2 1 0 0 0 0 0 1 1 0 0 0 0 0 0 0 1 2 3 3 2 1 1 2 3 3 3 5 6 5 3 1 0 0 0
6 6 6 6 5 4 3 3 3 1 0 0 0 1 1 2 2 1 1 0 0 0 0 0 1 2 2 2 1 0 0 0 1 1 1 3 5 6 6 3 1 1 0
4 4 5 6 5 5 4 4 3 2 1 0 0 1 2 3 2 2 2 1 0 0 0 0 0 1 1 1 0 0 0 0 0 0 0 1 2 4 5 5 3 2 1
5 5 4 4 4 5 6 5 4 4 2 1 0 1 2 3 3 3 3 2 0 0 0 0 0 0 0 0 0 0 0 0 0 0 0 0 0 1 3 3 3 2 1
8 7 5 4 4 6 7 7 6 5 3 1 0 0 1 2 3 3 3 2 0 0 0 0 0 0 0 0 0 0 0 0 0 0 0 0 0 0 1 1 1 1 1
10 9 8 7 6 6 7 7 6 6 4 1 0 0 0 1 1 3 3 2 1 0 0 0 0 0 0 0 0 0 0 0 0 0 0 0 0 0 0 0 0 0 1
9 8 8 7 6 6 6 6 6 6 4 1 0 0 0 1 2 3 3 4 4 2 1 0 0 0 0 0 0 0 0 0 0 0 0 0 0 0 0 0 0 0 0
6 5 5 5 5 5 5 5 4 4 3 1 0 0 2 4 5 4 3 3 5 5 3 1 0 0 0 0 0 0 0 0 0 0 0 0 0 0 0 0 0 0 0
4 3 3 4 5 5 6 5 4 3 2 1 1 2 3 5 4 2 1 1 3 4 4 1 0 0 0 0 0 0 0 0 0 0 0 0 0 0 0 0 0 0 0
3 3 4 4 4 5 6 6 6 6 4 3 3 3 3 3 2 0 0 0 1 2 2 1 0 0 0 0 0 0 0 0 0 0 0 0 0 0 0 0 0 0 0
2 3 5 5 5 5 6 6 8 7 5 4 3 3 2 1 0 0 0 0 0 0 0 0 0 0 0 0 0 0 0 0 0 0 0 0 0 0 0 0 0 0 0
3 4 5 7 8 7 6 6 6 6 4 3 3 2 1 0 0 0 0 0 0 0 0 0 0 0 0 0 0 0 0 0 0 0 0 0 0 0 0 0 0 0 0
4 4 5 6 8 8 6 5 5 4 4 2 1 1 0 0 0 0 0 0 0 0 0 0 0 0 0 0 0 0 0 0 0 0 0 0 0 0 0 0 0 0 0
6 6 5 5 5 5 4 3 3 5 4 2 0 0 0 0 0 0 0 0 0 0 0 0 0 0 0 0 0 0 0 0 0 0 0 0 0 0 0 0 0 0 0
6 6 6 4 3 2 1 1 2 4 4 2 1 0 0 0 0 0 0 0 0 0 0 0 0 0 0 0 0 0 0 0 0 0 0 0 0 0 0 0 0 0 0
6 5 4 3 2 1 0 0 0 2 3 3 2 0 0 0 0 0 0 0 0 0 0 0 0 0 0 0 0 0 0 0 0 0 0 0 0 0 0 0 0 0 0
4 3 2 1 1 1 0 0 0 1 3 3 2 0 0 0 0 0 0 0 0 0 0 0 0 0 0 0 0 0 0 0 0 0 0 0 1 0 0 0 0 0 0
2 1 1 0 0 0 0 0 1 2 3 3 2 1 0 0 0 0 0 0 0 0 0 0 0 0 0 0 0 0 0 0 0 0 0 0 1 0 0 0 0 0 0
Wind_Speed
2 1 1 1 1 1 1 1 1 1 1 2 1 2 1 2 2 1 1 3 3 3 4 4 4 5 4 4 4 5 5 5 5 5 4 5 5 5 5 5 6 6 6
2 2 1 1 0 0 0 1 1 1 1 1 1 1 1 1 2 2 1 2 3 3 3 3 4 4 4 4 4 4 5 6 5 5 5 5 5 5 5 4 5 5 5
2 2 1 1 0 0 1 1 2 2 2 1 1 1 1 1 1 1 1 1 1 3 4 3 3 4 4 4 4 4 5 5 6 6 6 5 4 4 5 5 5 5 5
3 2 1 1 1 1 1 2 2 2 2 1 1 1 1 0 0 1 1 1 1 1 2 3 4 4 4 4 4 4 4 5 5 5 6 5 5 5 5 5 5 5 6
3 2 2 1 2 2 1 1 2 1 1 1 1 1 1 0 0 0 1 1 1 1 1 2 3 4 4 5 5 5 5 5 5 6 6 6 6 5 5 5 5 5 6
3 2 2 2 2 2 2 2 2 2 2 1 1 2 1 1 0 0 1 1 1 2 2 2 2 2 4 4 5 5 5 5 4 5 6 6 6 5 5 5 5 5 6
3 3 2 2 2 2 2 2 2 2 1 1 2 2 2 2 1 1 0 0 1 1 1 1 1 1 2 3 4 5 5 6 5 5 5 5 4 5 5 5 6 6 6
3 3 3 2 2 2 2 2 2 2 1 1 1 1 2 2 2 1 0 0 1 0 0 1 1 1 2 1 2 5 5 5 5 5 5 5 5 5 5 5 7 6 6
3 3 3 3 2 2 2 2 2 2 1 1 1 2 2 1 2 2 1 1 0 0 1 1 1 2 2 2 2 4 4 4 5 5 4 4 5 6 7 6 6 6 6
3 3 3 4 3 2 2 2 2 2 2 1 0 0 1 2 1 1 2 1 1 1 1 1 2 2 2 2 2 3 3 3 4 4 4 4 5 6 6 7 7 7 7
2 3 3 3 3 3 3 2 2 2 2 2 1 1 1 1 2 2 2 2 2 2 1 2 2 2 2 2 2 3 4 3 3 3 4 4 5 5 6 6 6 6 6
1 2 3 3 3 3 3 3 3 3 2 2 2 2 2 2 2 2 2 2 2 2 2 2 2 2 2 2 3 3 3 3 4 4 4 4 5 5 5 5 5 5 5
2 3 3 3 3 3 3 3 3 3 3 2 2 2 2 2 2 2 2 1 1 2 2 1 1 2 2 1 2 3 3 3 4 4 4 4 4 5 5 5 5 5 5
3 3 3 3 3 3 3 3 2 2 2 2 2 2 1 2 2 2 2 2 1 1 1 2 1 2 2 2 2 2 2 3 3 3 3 3 4 4 4 4 4 3 4
2 3 3 3 3 3 3 3 2 2 2 1 1 1 1 2 2 2 2 2 2 2 2 2 1 2 2 2 2 1 2 3 3 3 3 3 3 3 3 3 3 3 3
2 3 3 3 3 3 3 3 2 2 2 2 2 2 2 2 1 2 2 2 2 3 2 2 2 2 2 2 1 1 2 3 3 3 3 3 3 3 3 3 3 3 3
2 3 3 3 3 3 3 3 2 3 2 2 2 2 3 3 2 2 2 2 2 2 3 2 2 1 1 2 2 1 1 1 2 2 2 2 2 3 3 3 3 3 3
2 3 3 4 4 3 3 3 3 3 3 3 3 3 3 2 3 2 2 2 2 3 3 3 2 1 1 1 1 2 2 1 2 2 3 3 3 3 3 3 3 3 3
3 3 3 4 4 4 4 4 4 4 4 4 4 4 4 3 3 3 3 3 2 2 2 2 2 1 1 1 1 1 2 2 2 1 2 2 3 3 4 4 4 4 4
3 3 4 4 4 4 4 4 4 4 4 4 4 4 4 4 4 4 3 3 3 2 2 2 2 1 1 1 1 1 1 1 2 2 1 1 1 2 3 4 4 4 4
3 3 3 4 4 4 4 4 4 4 4 4 3 4 4 4 5 4 3 3 3 2 2 2 2 1 2 1 1 1 1 1 2 1 1 1 1 2 2 3 4 4 4
3 2 3 4 4 3 4 5 4 3 4 4 4 3 3 4 4 4 4 5 5 5 4 3 3 3 3 3 2 2 1 1 2 1 1 2 1 2 2 2 3 4 4
3 3 3 3 3 3 4 4 4 3 4 4 4 3 3 2 3 3 3 4 4 5 7 5 5 5 4 4 3 2 2 2 3 1 1 2 2 2 2 2 4 4 4
2 3 3 3 3 3 4 5 5 4 3 3 3 4 3 3 3 2 2 2 3 3 5 5 5 5 5 4 4 3 3 2 2 2 2 2 2 2 2 2 3 3 3
2 2 2 2 2 2 4 4 4 2 2 3 3 3 3 3 3 3 2 2 2 2 2 3 4 4 4 4 3 2 2 2 2 2 2 2 1 1 2 2 2 3 3
2 2 2 2 2 2 3 4 3 2 2 2 2 2 3 3 3 4 3 3 4 3 2 1 1 2 2 3 5 5 4 3 2 2 2 2 1 1 2 1 2 2 2
Wind_Direction
128 108 87 74 56 50 67 73 98 99 97 99 118 138 155 162 170 185 198 197 191 188 188 181 177 171 168 169 169 169 175 179 178 177 176 176 174 174 178 177 176 177 181
129 129 114 94 68 72 73 79 88 103 108 103 102 127 157 169 170 180 200 211 210 198 192 186 183 186 185 181 180 178 182 187 185 182 178 171 173 180 189 195 188 182 183
135 130 120 114 83 90 89 80 73 79 92 89 78 83 94 141 161 193 207 217 233 218 207 203 201 203 201 197 198 199 192 189 188 185 180 179 181 182 192 204 203 198 195
136 128 129 137 107 99 96 96 85 84 78 83 78 59 62 66 218 205 189 201 214 232 228 220 220 213 215 221 217 215 207 198 195 192 190 189 191 191 194 203 207 205 200
140 133 139 131 114 102 99 107 85 100 107 97 99 67 38 20 302 246 222 215 210 212 219 230 236 228 228 234 233 230 224 215 207 203 201 200 201 201 201 203 203 205 202
146 138 131 119 116 108 99 98 97 85 99 98 78 48 24 359 357 286 262 261 235 221 219 227 235 247 245 247 240 237 235 231 219 210 212 211 207 204 207 211 212 213 211
158 151 143 135 132 126 130 124 112 92 74 78 83 37 15 18 3 316 308 316 285 264 226 221 221 234 256 255 243 239 239 237 230 221 217 212 205 202 211 215 215 216 213
163 161 154 154 147 129 114 117 117 110 76 63 106 90 14 355 349 353 6 258 272 274 219 235 229 235 252 248 247 247 245 239 235 235 235 224 213 207 213 222 219 217 217
170 162 160 155 156 152 153 147 141 143 141 52 91 137 144 230 311 332 332 324 325 277 261 265 241 242 245 243 249 257 257 243 236 240 246 235 219 214 218 222 222 223 223
180 173 163 163 165 160 160 165 154 149 143 163 86 88 173 171 185 308 325 326 312 293 286 279 274 258 250 244 245 245 257 253 246 246 249 244 230 222 220 223 222 224 224
195 181 169 167 170 167 164 159 147 151 164 174 179 178 183 197 201 205 273 311 319 297 288 277 270 266 260 251 245 250 247 252 249 247 247 245 240 239 226 223 221 222 224
205 194 174 171 172 166 167 169 163 171 185 182 188 191 189 193 200 196 228 268 289 295 294 278 271 269 262 252 252 260 247 250 249 246 248 245 241 243 227 224 223 221 226
206 210 187 173 174 179 168 157 157 173 186 184 197 206 209 218 200 187 198 232 271 302 304 282 264 272 270 263 260 260 252 251 249 246 245 243 239 232 231 230 226 229 228
208 199 185 182 182 175 167 157 161 187 178 193 201 197 203 227 211 200 191 186 242 297 299 280 288 269 275 266 267 252 262 258 253 246 246 241 239 234 234 230 230 229 229
193 181 174 179 179 171 167 163 172 190 171 192 196 195 226 236 221 218 204 195 192 240 272 271 274 274 281 261 271 262 262 262 246 240 239 228 227 236 242 233 232 229 228
189 165 166 175 175 172 170 166 169 182 179 211 205 199 229 233 218 211 207 207 206 210 243 253 257 278 292 296 290 262 271 278 260 245 236 221 225 235 241 237 231 229 226
176 179 179 177 180 183 180 176 186 185 189 219 229 218 230 217 205 208 196 193 202 201 228 262 260 275 282 306 320 306 280 269 269 247 230 229 238 244 244 235 229 226 227
191 193 185 182 189 190 187 185 202 202 197 211 228 229 238 219 205 205 193 200 207 206 210 242 261 277 273 285 307 312 309 286 263 246 235 236 236 237 237 234 230 229 227
200 198 189 192 200 202 198 199 202 207 206 213 219 220 226 209 213 211 203 202 206 202 204 216 250 267 267 283 307 312 320 316 297 276 249 243 241 237 230 230 229 229 231
206 205 207 208 208 208 205 201 202 205 207 221 225 222 223 214 215 209 208 207 197 188 190 205 234 257 260 263 241 271 308 323 313 313 307 283 265 255 246 241 239 237 235
216 216 214 221 216 211 211 204 203 201 205 218 230 229 228 224 216 207 203 199 189 192 192 208 229 237 242 229 235 240 261 297 303 287 299 299 291 276 266 251 244 242 244
219 222 221 220 218 224 215 203 197 201 208 212 224 234 238 238 234 220 215 209 197 197 204 210 222 229 241 233 226 223 236 261 283 261 270 291 281 276 275 264 258 252 248
221 227 229 213 218 225 212 206 206 202 209 215 220 227 233 235 220 220 224 228 227 219 207 205 214 227 228 221 205 220 234 236 245 243 243 274 270 270 273 268 258 256 253
222 228 233 221 218 225 212 208 207 205 211 222 221 220 224 238 230 215 215 228 243 241 225 217 221 231 231 223 209 210 218 243 260 245 212 242 265 270 285 279 260 249 246
223 233 227 215 214 237 218 207 196 199 210 230 233 226 222 228 236 207 196 219 250 265 242 213 215 228 228 223 207 188 203 226 261 255 199 210 237 280 283 274 266 251 250
226 224 227 221 216 232 218 201 189 196 211 228 242 242 229 228 228 201 199 202 222 237 237 236 238 248 236 225 215 216 213 216 234 241 195 190 202 245 279 268 275 272 266